Terug naar catalogus

OPS 9431

DSCS 2-1

ActiefMilitairGEO
NORAD 5587·PAYLOAD·🇺🇸 United States

Gelanceerd Nov 3, 1971 vanaf Cape Canaveral Space Force Station

Loading…

TLE

VersSource: Space-Track

Epoch: Sep 14, 2026, 13:19 UTC

1 05587U 71095A   26257.55486414 -.00000113  00000-0  00000-0 0  9992
2 05587   1.3723 250.0524 0006372 357.3067 203.7592  1.00260664122918

Volg OPS 9431 in realtime met AllMySat

Download on the App Store